Terminal Aerodrome Forecast
Issued by NWS Nashville, TN

Home | Current Version | Previous Version | Text Only | Print | Product List | Glossary On
Versions: 1 2 3 4 5 6 7 8 9 10 11 12 13 14 15 16 17 18 19
000
FTUS44 KOHX 301100
TAFBNA
TAF
KBNA 301139Z 3012/3112 17003KT P6SM BKN050
     FM301400 18007KT 6SM -RA BR VCTS BKN050CB
     FM301700 20007KT 5SM TSRA BR OVC040CB
     FM302100 19008KT 2SM TSRA OVC015CB
     FM310000 18006KT 3SM TSRA OVC025CB
     FM310600 18005KT P6SM VCSH OVC030=

USA.gov is the U.S. government's official web portal to all federal, state and local government web resources and services.